• In Slovakia
  • List of Countries
  • For 7 days
  • Water Temperature
  • Satellite Maps
  • Weather Map
  • Weather Widgets
  • user-avatar
    Login

    Hourly Weather Lankaran

    Today, 18 October, Thursday

    Time Temperature Precipitation Wind Pressure Humidity
    00:00 +8°C° 0 mm 2 mps 638 mmHg 91%
    01:00 +7°C° 0 mm 2 mps 637 mmHg 91%
    02:00 +7°C° 0 mm 2 mps 637 mmHg 91%
    03:00 +7°C° 0 mm 2 mps 637 mmHg 89%
    04:00 +8°C° 0 mm 1 mps 637 mmHg 89%
    05:00 +7°C° 0 mm 1 mps 637 mmHg 89%
    06:00 +7°C° 0 mm 1 mps 637 mmHg 89%
    07:00 +9°C° 0 mm 1 mps 637 mmHg 79%
    08:00 +11°C° 0 mm 1 mps 638 mmHg 69%
    09:00 +13°C° 0 mm 1 mps 639 mmHg 58%
    10:00 +14°C° 0 mm 2 mps 639 mmHg 53%
    11:00 +15°C° 0 mm 2 mps 639 mmHg 48%
    12:00 +16°C° 0 mm 2 mps 639 mmHg 43%
    13:00 +16°C° 0 mm 2 mps 638 mmHg 46%
    14:00 +16°C° 0 mm 3 mps 638 mmHg 49%
    15:00 +16°C° 0 mm 3 mps 638 mmHg 52%
    16:00 +13°C° 0 mm 3 mps 637 mmHg 60%
    17:00 +13°C° 0 mm 2 mps 637 mmHg 69%
    18:00 +12°C° 0 mm 2 mps 637 mmHg 78%
    19:00 +10°C° 0 mm 2 mps 637 mmHg 80%
    20:00 +10°C° 0 mm 2 mps 637 mmHg 82%
    21:00 +9°C° 0 mm 2 mps 637 mmHg 84%
    22:00 +9°C° 0 mm 2 mps 637 mmHg 85%
    23:00 +8°C° 0 mm 2 mps 637 mmHg 86%

    Tomorrow, 19 October, Friday

    Time Temperature Precipitation Wind Pressure Humidity
    00:00 +9°C° 0 mm 1 mps 637 mmHg 86%
    01:00 +9°C° 0 mm 1 mps 637 mmHg 86%
    02:00 +8°C° 0 mm 1 mps 637 mmHg 86%
    03:00 +8°C° 0 mm 1 mps 637 mmHg 86%
    04:00 +8°C° 0 mm 1 mps 637 mmHg 86%
    05:00 +7°C° 0 mm 1 mps 636 mmHg 86%
    06:00 +7°C° 0 mm 1 mps 636 mmHg 85%
    07:00 +9°C° 0 mm 1 mps 637 mmHg 75%
    08:00 +10°C° 0 mm 2 mps 638 mmHg 64%
    09:00 +13°C° 0 mm 2 mps 639 mmHg 54%
    10:00 +14°C° 0 mm 2 mps 639 mmHg 50%
    11:00 +15°C° 0 mm 2 mps 639 mmHg 47%
    12:00 +16°C° 0 mm 3 mps 639 mmHg 43%
    13:00 +16°C° 0 mm 3 mps 638 mmHg 45%
    14:00 +16°C° 0 mm 3 mps 638 mmHg 46%
    15:00 +16°C° 0 mm 3 mps 638 mmHg 48%
    16:00 +14°C° 0 mm 2 mps 637 mmHg 57%
    17:00 +13°C° 0 mm 2 mps 637 mmHg 66%
    18:00 +10°C° 0 mm 2 mps 636 mmHg 75%
    19:00 +10°C° 0 mm 2 mps 636 mmHg 76%
    20:00 +10°C° 0 mm 2 mps 636 mmHg 77%
    21:00 +9°C° 0 mm 2 mps 636 mmHg 78%
    22:00 +9°C° 0 mm 2 mps 636 mmHg 76%
    23:00 +9°C° 0 mm 2 mps 636 mmHg 75%

    Day after tomorrow, 20 October, Saturday

    Time Temperature Precipitation Wind Pressure Humidity
    00:00 +9°C° 0 mm 2 mps 636 mmHg 73%
    01:00 +8°C° 0 mm 2 mps 636 mmHg 71%
    02:00 +8°C° 0 mm 2 mps 635 mmHg 69%
    03:00 +8°C° 0 mm 2 mps 635 mmHg 67%
    04:00 +8°C° 0 mm 2 mps 635 mmHg 65%
    05:00 +8°C° 0 mm 2 mps 635 mmHg 64%
    06:00 +8°C° 0 mm 2 mps 635 mmHg 62%
    07:00 +10°C° 0 mm 2 mps 636 mmHg 55%
    08:00 +13°C° 0 mm 2 mps 636 mmHg 47%
    09:00 +16°C° 0 mm 2 mps 637 mmHg 40%
    10:00 +17°C° 0 mm 2 mps 637 mmHg 39%
    11:00 +18°C° 0 mm 3 mps 637 mmHg 39%
    12:00 +19°C° 0 mm 3 mps 637 mmHg 38%
    13:00 +19°C° 0.1 mm 3 mps 637 mmHg 39%
    14:00 +18°C° 0.1 mm 3 mps 636 mmHg 41%
    15:00 +18°C° 0.1 mm 3 mps 636 mmHg 42%
    16:00 +17°C° 0.1 mm 3 mps 635 mmHg 48%
    17:00 +15°C° 0.1 mm 2 mps 635 mmHg 54%
    18:00 +14°C° 0.1 mm 2 mps 635 mmHg 60%
    19:00 +13°C° 0.1 mm 2 mps 635 mmHg 58%
    20:00 +13°C° 0.1 mm 2 mps 635 mmHg 57%
    21:00 +13°C° 0.1 mm 2 mps 635 mmHg 55%
    22:00 +13°C° 0.1 mm 2 mps 634 mmHg 54%
    23:00 +12°C° 0.1 mm 2 mps 634 mmHg 52%

    21 October, Sunday

    Time Temperature Precipitation Wind Pressure Humidity
    00:00 +12°C° 0.1 mm 2 mps 634 mmHg 50%
    01:00 +12°C° 0.1 mm 2 mps 634 mmHg 50%
    02:00 +12°C° 0.1 mm 1 mps 634 mmHg 49%
    03:00 +12°C° 0.1 mm 1 mps 634 mmHg 49%
    04:00 +11°C° 0 mm 1 mps 633 mmHg 50%
    05:00 +11°C° 0 mm 1 mps 633 mmHg 51%
    06:00 +11°C° 0 mm 1 mps 633 mmHg 53%
    07:00 +13°C° 0 mm 2 mps 634 mmHg 48%
    08:00 +15°C° 0 mm 2 mps 635 mmHg 44%
    09:00 +18°C° 0 mm 2 mps 636 mmHg 39%
    10:00 +18°C° 0 mm 3 mps 635 mmHg 39%
    11:00 +19°C° 0 mm 3 mps 635 mmHg 39%
    12:00 +19°C° 0 mm 4 mps 635 mmHg 39%
    13:00 +19°C° 0.1 mm 4 mps 635 mmHg 41%
    14:00 +19°C° 0.1 mm 4 mps 634 mmHg 44%
    15:00 +18°C° 0.1 mm 4 mps 634 mmHg 46%
    16:00 +17°C° 0.1 mm 4 mps 634 mmHg 49%
    17:00 +16°C° 0.1 mm 3 mps 634 mmHg 53%
    18:00 +14°C° 0.1 mm 3 mps 633 mmHg 56%
    19:00 +14°C° 0 mm 3 mps 633 mmHg 57%
    20:00 +13°C° 0 mm 3 mps 633 mmHg 59%
    21:00 +12°C° 0 mm 3 mps 633 mmHg 61%
    22:00 +12°C° 0 mm 3 mps 633 mmHg 62%
    23:00 +13°C° 0 mm 2 mps 632 mmHg 63%

    22 October, Monday

    Time Temperature Precipitation Wind Pressure Humidity
    00:00 +13°C° 0 mm 2 mps 632 mmHg 65%
    01:00 +12°C° 0 mm 2 mps 632 mmHg 65%
    02:00 +12°C° 0 mm 2 mps 632 mmHg 65%
    03:00 +11°C° 0 mm 3 mps 632 mmHg 66%
    04:00 +11°C° 0 mm 3 mps 632 mmHg 66%
    05:00 +11°C° 0 mm 3 mps 632 mmHg 66%
    06:00 +10°C° 0 mm 3 mps 632 mmHg 67%
    07:00 +12°C° 0 mm 4 mps 633 mmHg 60%
    08:00 +14°C° 0 mm 4 mps 634 mmHg 53%
    09:00 +17°C° 0 mm 4 mps 634 mmHg 47%
    10:00 +18°C° 0 mm 4 mps 634 mmHg 43%
    11:00 +19°C° 0 mm 5 mps 634 mmHg 40%
    12:00 +20°C° 0 mm 5 mps 634 mmHg 37%
    13:00 +20°C° 0 mm 5 mps 634 mmHg 36%
    14:00 +20°C° 0 mm 5 mps 634 mmHg 36%
    15:00 +20°C° 0 mm 4 mps 634 mmHg 35%
    16:00 +19°C° 0 mm 4 mps 634 mmHg 38%
    17:00 +17°C° 0 mm 3 mps 634 mmHg 42%
    18:00 +16°C° 0 mm 2 mps 633 mmHg 45%
    19:00 +15°C° 0.1 mm 2 mps 634 mmHg 45%
    20:00 +15°C° 0.1 mm 2 mps 634 mmHg 45%
    21:00 +14°C° 0.1 mm 2 mps 634 mmHg 45%
    22:00 +14°C° 0 mm 2 mps 634 mmHg 46%
    23:00 +13°C° 0 mm 2 mps 634 mmHg 48%

    23 October, Tuesday

    Time Temperature Precipitation Wind Pressure Humidity
    00:00 +13°C° 0 mm 2 mps 634 mmHg 49%
    01:00 +13°C° 0 mm 2 mps 634 mmHg 51%
    02:00 +12°C° 0 mm 2 mps 634 mmHg 53%
    03:00 +12°C° 0 mm 2 mps 634 mmHg 55%
    04:00 +12°C° 0 mm 2 mps 634 mmHg 55%
    05:00 +12°C° 0 mm 2 mps 634 mmHg 56%
    06:00 +10°C° 0 mm 2 mps 634 mmHg 57%
    07:00 +12°C° 0 mm 3 mps 635 mmHg 50%
    08:00 +16°C° 0 mm 3 mps 636 mmHg 43%
    09:00 +18°C° 0 mm 3 mps 637 mmHg 36%
    10:00 +19°C° 0 mm 3 mps 636 mmHg 33%
    11:00 +20°C° 0 mm 3 mps 636 mmHg 31%
    12:00 +21°C° 0 mm 4 mps 636 mmHg 28%
    13:00 +21°C° 0 mm 4 mps 636 mmHg 28%
    14:00 +21°C° 0 mm 4 mps 636 mmHg 29%
    15:00 +21°C° 0 mm 4 mps 635 mmHg 29%
    16:00 +19°C° 0 mm 3 mps 635 mmHg 32%
    17:00 +18°C° 0 mm 3 mps 635 mmHg 34%
    18:00 +16°C° 0 mm 3 mps 635 mmHg 37%
    19:00 +16°C° 0 mm 3 mps 635 mmHg 36%
    20:00 +16°C° 0 mm 3 mps 634 mmHg 36%
    21:00 +16°C° 0 mm 3 mps 634 mmHg 36%
    22:00 +14°C° 0 mm 3 mps 634 mmHg 38%
    23:00 +14°C° 0 mm 3 mps 634 mmHg 40%
    Show more